Location: Pian di Sc�
(43.6333°N, 11.5500°E)
Time: 10:20:52
(UTC+00:00)

SJ 16-02 - Pass Details

Date: 07 August 2020
Orbit: 607 x 616 km, 75.0° (Epoch: 19 September)

Event Time Altitude Azimuth Distance (km) Brightness Sun altitude
Exits shadow 01:25:09 60° 133° (SE) 707 1.5 -23.5°
Maximum altitude 01:25:31 63° 106° (ESE) 690 1.5 -23.5°
Drops below altitude 10° 01:29:53 10° 25° (NNE) 1,980 5.0 -23.0°
Sets 01:32:09 0° 23° (NNE) 2,888 6.2 -22.8°
